This is the latest recevied weather packets stored in our database for station/object N5CNB. If no packets are shown the sender has not sent any weather packets the latest 10 day(s).
| Time | Temp. | Humidity | Pressure | Rain* | Wind** | Luminosity | Snow |
|---|---|---|---|---|---|---|---|
| 1777896010 | 13.33° C | 84% | 1015.5 hPa | 0 mm | - | - | - |
| 1777895120 | 13.33° C | 85% | 1015.6 hPa | 0 mm | - | - | - |
| 1777894223 | 12.78° C | 85% | 1015.5 hPa | 0 mm | - | - | - |
| 1777893323 | 13.33° C | 85% | 1015.7 hPa | 0 mm | - | - | - |
| 1777892408 | 13.89° C | 83% | 1015.7 hPa | 0 mm | - | - | - |
| 1777891508 | 13.89° C | 83% | 1015.7 hPa | 0 mm | - | - | - |
| 1777889724 | 14.44° C | 82% | 1015.7 hPa | 0 mm | - | - | - |
| 1777888825 | 13.89° C | 82% | 1015.7 hPa | 0 mm | - | - | - |
| 1777887915 | 13.89° C | 82% | 1015.8 hPa | 0 mm | - | - | - |
| 1777887014 | 13.89° C | 82% | 1015.9 hPa | 0 mm | - | - | - |
| 1777886124 | 14.44° C | 82% | 1016 hPa | 0 mm | - | - | - |
| 1777885222 | 14.44° C | 81% | 1016.3 hPa | 0 mm | - | - | - |
| 1777884327 | 15° C | 81% | 1016.2 hPa | 0 mm | - | - | - |
| 1777883424 | 15° C | 81% | 1016.3 hPa | 0 mm | - | - | - |
| 1777882520 | 15° C | 82% | 1016.4 hPa | 0 mm | - | - | - |
| 1777881625 | 15° C | 81% | 1016.5 hPa | 0 mm | - | - | - |
| 1777880726 | 15.56° C | 81% | 1016.6 hPa | 0 mm | - | - | - |
| 1777879827 | 15.56° C | 82% | 1017 hPa | 0 mm | - | - | - |
| 1777878912 | 15° C | 82% | 1017.4 hPa | 0 mm | - | - | - |
| 1777878033 | 15° C | 82% | 1017.7 hPa | 0 mm | - | - | - |
| 1777877120 | 15° C | 82% | 1017.9 hPa | 0 mm | - | - | - |
| 1777876227 | 15.56° C | 81% | 1018.1 hPa | 0 mm | - | - | - |
| 1777875328 | 16.11° C | 80% | 1018.3 hPa | 0 mm | - | - | - |
| 1777874420 | 16.11° C | 79% | 1018.1 hPa | 0 mm | - | - | - |
| 1777873520 | 16.11° C | 79% | 1018.1 hPa | 0 mm | - | - | - |
* Rain latest hour (hover to see other rain measurements)
** Current wind speed in m/s (hover to see current wind gust speed)